星链-34321 (STARLINK-34321)

导读

STARLINK-34321是美国太空探索技术公司(SpaceX)星链(Starlink)星座的一颗卫星,于2025年6月4日发射升空。星链旨在构建全球卫星互联网星座,为全球偏远地区提供高速低延迟网络服务。该卫星入轨后将参与星座组网,进一步完善星链系统覆盖能力,提升全球卫星互联网服务的稳定性和容量。

Basic Information
目录编号:
64267
目录名称:
STARLINK-34321
国际标识:
2025-120M
轨道中心:
EARTH
卫星名称:
星链-34321
卫星全名:
星链-34321 (STARLINK-34321)
卫星状态:
在轨 (已飞行457 天)
发射日期:
2025-06-04 UTC
国别 :
美国 (US)
星等 :
--
Orbit Information
数据来源 国际轨道数据
星历时间: 2026-09-04T01:52:20+0800
10小时前
查看轨道信息
半长轴: 6840.83km
偏心率: 0.0001108
轨道倾角: 53.160°
近地点辐角 81.074°
升交点赤经 4.215°
平近点角 279.038°
近地点: 461.935km
远地点: 463.451km
周期: 93.848分钟
每日圈数: 15.344037
Detailed Information
固有亮度:
5
最大亮度:
2.5
卫星平台:
Starlink V1.0
覆盖范围:
全球
运营商:
太空探索技术公司
运营商所在国:
美国
制造商(研发单位):
太空探索技术公司
制造商所在国:
美国
使用方式:
暂无
Satellite Introduction
Starlink 计划是 SpaceX 推出的全球卫星互联网项目,通过发射低轨道卫星,为全球尤其是偏远地区提供高速、低延迟的互联网服务。自 2019 年起,Starlink 已部署数千颗卫星,旨在缩小全球数字鸿沟,推动互联网普及。该项目还为军事、航空等行业提供通信支持,带来广泛经济效益。
2D Orbit Map
3D Orbit Map
Orbit Altitude Analysis Chart
Orbit Inclination Analysis Chart
Orbit Comprehensive Analysis Chart
View Comprehensive Chart
Conjunction Data List
Event ID Objects TCA Miss Dist (km) Collision Risk Probability Collision Risk Index (CRI) Action
CDM_260903-150404-765506-426721
2026-09-03T
15:04:13+0000
0.420 km
远距离
1.626933E-4 高风险 0.79
CDM_260904-134806-425706-426721
2026-09-04T
13:48:24+0000
0.443 km
远距离
4.745639E-5 中风险 0.69
CDM_260903-142306-426706-662621
2026-09-03T
14:23:25+0000
0.667 km
远距离
3.397539E-5 中风险 0.66
CDM_260904-160906-425706-426721
2026-09-04T
16:09:05+0000
0.624 km
远距离
1.671995E-5 中风险 0.59
CDM_260904-143506-425706-426721
2026-09-04T
14:35:18+0000
0.958 km
远距离
3.963142E-6 低风险 0.47
CDM_260903-203204-765506-426721
2026-09-03T
20:32:29+0000
1.776 km
极远距离
1.979523E-6 低风险 0.41
CDM_260904-121406-425706-426721
2026-09-04T
12:14:36+0000
1.346 km
极远距离
1.328805E-6 低风险 0.37
CDM_260829-165005-382506-426721
2026-08-29T
16:50:05+0000
2.757 km
极远距离
1.30584E-6 低风险 0.37
CDM_260904-000905-378906-426721
2026-09-04T
00:09:09+0000
2.865 km
极远距离
1.270246E-6 低风险 0.37
CDM_260903-181706-426706-662621
2026-09-03T
18:17:53+0000
2.252 km
极远距离
8.421732E-7 极低风险 0.34